Time,TemperatureF,DewpointF,PressureIn,WindDirection,WindDirectionDegrees,WindSpeedMPH,WindSpeedGustMPH,Humidity,HourlyPrecipIn,Conditions,Clouds,dailyrainin,SoftwareType,DateUTC
2013-05-10 06:23:00,59.0,51.0,-100.00,NW,315,5.0,6.0,74,0.00,,,0.05,,2013-05-10 10:23:00,
2013-05-10 06:32:00,58.0,51.0,-100.00,NW,326,4.0,6.0,76,0.00,,,0.05,,2013-05-10 10:32:00,
2013-05-10 06:42:00,58.0,51.0,-100.00,NW,326,4.0,6.0,76,0.00,,,0.05,,2013-05-10 10:42:00,
2013-05-10 06:53:00,58.0,50.0,-100.00,NW,313,4.0,6.0,76,0.00,,,0.05,,2013-05-10 10:53:00,
2013-05-10 07:02:00,60.0,50.0,-100.00,NW,315,3.0,4.0,68,0.00,,,0.05,,2013-05-10 11:02:00,
2013-05-10 07:12:00,60.0,50.0,-100.00,NW,315,3.0,4.0,68,0.00,,,0.05,,2013-05-10 11:12:00,
2013-05-10 07:22:00,59.0,51.0,-100.00,NW,326,3.0,6.0,74,0.00,,,0.05,,2013-05-10 11:22:00,
2013-05-10 07:32:00,58.0,51.0,-100.00,NW,311,4.0,5.0,79,0.00,,,0.05,,2013-05-10 11:32:00,
2013-05-10 07:42:00,58.0,51.0,-100.00,NW,311,4.0,5.0,79,0.00,,,0.05,,2013-05-10 11:42:00,
2013-05-10 07:52:00,61.0,50.0,-100.00,NW,320,3.0,4.0,69,0.00,,,0.05,,2013-05-10 11:52:00,
2013-05-10 08:02:00,62.0,53.0,-100.00,NW,326,2.0,3.0,71,0.00,,,0.05,,2013-05-10 12:02:00,
2013-05-10 08:12:00,62.0,53.0,-100.00,NW,326,2.0,3.0,71,0.00,,,0.05,,2013-05-10 12:12:00,
2013-05-10 08:22:00,63.0,53.0,-100.00,ESE,110,2.0,5.0,70,0.00,,,0.05,,2013-05-10 12:22:00,
2013-05-10 08:32:00,67.0,53.0,-100.00,SE,126,2.0,3.0,60,0.00,,,0.05,,2013-05-10 12:32:00,
2013-05-10 08:42:00,67.0,53.0,-100.00,SE,126,2.0,3.0,60,0.00,,,0.05,,2013-05-10 12:42:00,
2013-05-10 08:52:00,69.0,53.0,-100.00,SE,136,1.0,2.0,57,0.00,,,0.05,,2013-05-10 12:52:00,
2013-05-10 09:01:00,66.0,54.0,-100.00,East,85,1.0,6.0,65,0.00,,,0.03,,2013-05-10 13:01:00,
2013-05-10 09:11:00,66.0,54.0,-100.00,East,85,1.0,6.0,65,0.00,,,0.03,,2013-05-10 13:11:00,
2013-05-10 09:21:00,63.0,54.0,-100.00,NNW,342,2.0,6.0,72,0.00,,,0.02,,2013-05-10 13:21:00,
2013-05-10 09:32:00,67.0,55.0,-100.00,NNW,336,2.0,3.0,65,0.00,,,0.02,,2013-05-10 13:32:00,
2013-05-10 09:42:00,67.0,55.0,-100.00,NNW,336,2.0,3.0,65,0.00,,,0.02,,2013-05-10 13:42:00,
2013-05-10 09:52:00,71.0,57.0,-100.00,WNW,291,2.0,4.0,62,0.00,,,0.02,,2013-05-10 13:52:00,
2013-05-10 10:02:00,67.0,57.0,-100.00,SSE,148,5.0,7.0,70,0.00,,,0.00,,2013-05-10 14:02:00,
2013-05-10 10:11:00,67.0,57.0,-100.00,SSE,148,5.0,7.0,70,0.00,,,0.00,,2013-05-10 14:11:00,
2013-05-10 10:21:00,67.0,58.0,-100.00,SE,144,3.0,5.0,71,0.00,,,0.00,,2013-05-10 14:21:00,
2013-05-10 10:32:00,67.0,58.0,-100.00,SSE,147,4.0,5.0,72,0.00,,,0.00,,2013-05-10 14:32:00,
2013-05-10 10:42:00,67.0,58.0,-100.00,SSE,147,4.0,5.0,72,0.00,,,0.00,,2013-05-10 14:42:00,
2013-05-10 10:52:00,69.0,57.0,-100.00,SSE,151,6.0,7.0,65,0.00,,,0.00,,2013-05-10 14:52:00,
2013-05-10 11:02:00,69.0,57.0,-100.00,SSE,151,6.0,7.0,65,0.00,,,0.00,,2013-05-10 15:02:00,
2013-05-10 11:20:00,-999.0,-99.9,-100.00,SSE,151,6.0,7.0,65,0.00,,,0.00,,2013-05-10 15:20:00,
2013-05-10 11:32:00,71.0,58.0,-100.00,SSE,150,5.0,7.0,61,0.00,,,0.00,,2013-05-10 15:32:00,
2013-05-10 11:42:00,71.0,58.0,-100.00,SSE,150,5.0,7.0,61,0.00,,,0.00,,2013-05-10 15:42:00,
2013-05-10 11:53:00,73.0,58.0,-100.00,SE,143,4.0,7.0,60,0.00,,,0.00,,2013-05-10 15:53:00,
2013-05-10 12:02:00,74.0,57.0,-100.00,SE,140,7.0,9.0,55,0.00,,,0.00,,2013-05-10 16:02:00,
2013-05-10 12:12:00,74.0,57.0,-100.00,SE,140,7.0,9.0,55,0.00,,,0.00,,2013-05-10 16:12:00,
2013-05-10 12:23:00,75.0,55.0,-100.00,SE,138,6.0,10.0,49,0.00,,,0.00,,2013-05-10 16:23:00,
2013-05-10 12:33:00,77.0,55.0,-100.00,SE,143,7.0,11.0,46,0.00,,,0.00,,2013-05-10 16:33:00,
2013-05-10 12:43:00,77.0,55.0,-100.00,SE,143,7.0,11.0,46,0.00,,,0.00,,2013-05-10 16:43:00,
2013-05-10 12:53:00,78.0,52.0,-100.00,SSE,155,6.0,12.0,41,0.00,,,0.00,,2013-05-10 16:53:00,
2013-05-10 13:02:00,77.0,50.0,-100.00,SE,143,6.0,12.0,39,0.00,,,0.00,,2013-05-10 17:02:00,
2013-05-10 13:12:00,77.0,50.0,-100.00,SE,143,6.0,12.0,39,0.00,,,0.00,,2013-05-10 17:12:00,
2013-05-10 13:22:00,78.0,53.0,-100.00,SE,143,4.0,7.0,41,0.00,,,0.00,,2013-05-10 17:22:00,
2013-05-10 13:32:00,78.0,52.0,-100.00,SE,136,5.0,9.0,40,0.00,,,0.00,,2013-05-10 17:32:00,
2013-05-10 13:42:00,78.0,52.0,-100.00,SE,136,5.0,9.0,40,0.00,,,0.00,,2013-05-10 17:42:00,
2013-05-10 13:52:00,78.0,55.0,-100.00,SSE,147,7.0,11.0,44,0.00,,,0.00,,2013-05-10 17:52:00,
2013-05-10 14:10:00,-999.0,-99.9,-100.00,SSE,150,4.0,8.0,44,0.00,,,0.00,,2013-05-10 18:10:00,
2013-05-10 14:22:00,79.0,56.0,-100.00,SE,145,5.0,10.0,46,0.00,,,0.00,,2013-05-10 18:22:00,
2013-05-10 14:34:00,77.0,56.0,-100.00,SSE,147,6.0,13.0,47,0.00,,,0.00,,2013-05-10 18:34:00,
2013-05-10 14:43:00,77.0,56.0,-100.00,SSE,147,6.0,13.0,47,0.00,,,0.00,,2013-05-10 18:43:00,
2013-05-10 14:54:00,78.0,55.0,-100.00,SE,143,10.0,15.0,45,0.00,,,0.00,,2013-05-10 18:54:00,
2013-05-10 15:02:00,78.0,57.0,-100.00,SE,143,10.0,15.0,48,0.00,,,0.00,,2013-05-10 19:02:00,
2013-05-10 15:11:00,78.0,57.0,-100.00,SE,143,10.0,15.0,48,0.00,,,0.00,,2013-05-10 19:11:00,
2013-05-10 15:21:00,80.0,55.0,-100.00,SE,143,10.0,16.0,42,0.00,,,0.00,,2013-05-10 19:21:00,
2013-05-10 15:32:00,79.0,56.0,-100.00,SSE,147,11.0,16.0,45,0.00,,,0.00,,2013-05-10 19:32:00,
2013-05-10 15:42:00,79.0,56.0,-100.00,SSE,147,11.0,16.0,45,0.00,,,0.00,,2013-05-10 19:42:00,
2013-05-10 15:52:00,80.0,57.0,-100.00,SE,144,11.0,16.0,46,0.00,,,0.00,,2013-05-10 19:52:00,
2013-05-10 16:02:00,80.0,55.0,-100.00,SE,145,13.0,19.0,42,0.00,,,0.00,,2013-05-10 20:02:00,
2013-05-10 16:12:00,80.0,55.0,-100.00,SE,145,13.0,19.0,42,0.00,,,0.00,,2013-05-10 20:12:00,
2013-05-10 16:22:00,81.0,57.0,-100.00,SE,145,10.0,16.0,44,0.00,,,0.00,,2013-05-10 20:22:00,
2013-05-10 16:32:00,79.0,55.0,-100.00,SE,144,13.0,21.0,44,0.00,,,0.00,,2013-05-10 20:32:00,
2013-05-10 16:42:00,79.0,55.0,-100.00,SE,144,13.0,21.0,44,0.00,,,0.00,,2013-05-10 20:42:00,
2013-05-10 16:52:00,79.0,54.0,-100.00,SE,141,13.0,19.0,42,0.00,,,0.00,,2013-05-10 20:52:00,
2013-05-10 17:02:00,78.0,53.0,-100.00,SSE,150,11.0,16.0,41,0.00,,,0.00,,2013-05-10 21:02:00,
2013-05-10 17:11:00,78.0,53.0,-100.00,SSE,150,11.0,16.0,41,0.00,,,0.00,,2013-05-10 21:11:00,
2013-05-10 17:25:00,78.0,56.0,-100.00,SE,144,12.0,17.0,46,0.00,,,0.00,,2013-05-10 21:25:00,
2013-05-10 17:32:00,78.0,55.0,-100.00,SE,141,11.0,17.0,45,0.00,,,0.00,,2013-05-10 21:32:00,
2013-05-10 17:43:00,78.0,55.0,-100.00,SE,141,11.0,17.0,45,0.00,,,0.00,,2013-05-10 21:43:00,
2013-05-10 17:53:00,78.0,54.0,-100.00,SE,138,13.0,17.0,45,0.00,,,0.00,,2013-05-10 21:53:00,
2013-05-10 18:02:00,77.0,55.0,-100.00,SE,140,10.0,15.0,47,0.00,,,0.00,,2013-05-10 22:02:00,
2013-05-10 18:13:00,77.0,55.0,-100.00,SE,140,10.0,15.0,47,0.00,,,0.00,,2013-05-10 22:13:00,
2013-05-10 18:22:00,78.0,55.0,-100.00,SE,137,11.0,15.0,46,0.00,,,0.00,,2013-05-10 22:22:00,
2013-05-10 18:32:00,77.0,56.0,-100.00,SE,136,12.0,15.0,47,0.00,,,0.00,,2013-05-10 22:32:00,
2013-05-10 18:42:00,77.0,56.0,-100.00,SE,136,12.0,15.0,47,0.00,,,0.00,,2013-05-10 22:42:00,
2013-05-10 18:53:00,77.0,56.0,-100.00,SE,138,10.0,15.0,48,0.00,,,0.00,,2013-05-10 22:53:00,
2013-05-10 19:02:00,77.0,56.0,-100.00,SE,134,9.0,15.0,48,0.00,,,0.00,,2013-05-10 23:02:00,
2013-05-10 19:12:00,77.0,56.0,-100.00,SE,134,9.0,15.0,48,0.00,,,0.00,,2013-05-10 23:12:00,
2013-05-10 19:22:00,76.0,56.0,-100.00,SE,134,9.0,12.0,50,0.00,,,0.00,,2013-05-10 23:22:00,
2013-05-10 19:33:00,76.0,56.0,-100.00,SE,136,8.0,13.0,51,0.00,,,0.00,,2013-05-10 23:33:00,
2013-05-10 19:42:00,76.0,56.0,-100.00,SE,136,8.0,13.0,51,0.00,,,0.00,,2013-05-10 23:42:00,
2013-05-10 19:52:00,76.0,56.0,-100.00,SE,134,10.0,15.0,51,0.00,,,0.00,,2013-05-10 23:52:00,
2013-05-10 20:02:00,69.0,60.0,-100.00,WSW,258,12.0,28.0,75,0.01,,,0.00,,2013-05-11 00:02:00,
2013-05-10 20:11:00,69.0,60.0,-100.00,WSW,258,12.0,28.0,75,0.01,,,0.00,,2013-05-11 00:11:00,
2013-05-10 20:22:00,63.0,61.0,-100.00,NNW,339,5.0,14.0,93,0.17,,,0.06,,2013-05-11 00:22:00,
2013-05-10 20:32:00,62.0,61.0,-100.00,North,354,3.0,6.0,96,0.18,,,0.12,,2013-05-11 00:32:00,
2013-05-10 20:42:00,62.0,61.0,-100.00,North,354,3.0,6.0,96,0.18,,,0.12,,2013-05-11 00:42:00,
2013-05-10 20:52:00,62.0,61.0,-100.00,North,350,2.0,5.0,96,0.31,,,0.17,,2013-05-11 00:52:00,
2013-05-10 21:01:00,62.0,61.0,-100.00,North,360,3.0,6.0,97,0.23,,,0.21,,2013-05-11 01:01:00,
2013-05-10 21:11:00,62.0,61.0,-100.00,North,360,3.0,6.0,97,0.23,,,0.21,,2013-05-11 01:11:00,
2013-05-10 21:21:00,62.0,61.0,-100.00,North,359,3.0,6.0,97,0.00,,,0.23,,2013-05-11 01:21:00,
2013-05-10 21:32:00,62.0,61.0,-100.00,NNW,335,4.0,9.0,96,0.04,,,0.24,,2013-05-11 01:32:00,
2013-05-10 21:42:00,62.0,61.0,-100.00,NNW,335,4.0,9.0,96,0.04,,,0.24,,2013-05-11 01:42:00,
2013-05-10 21:52:00,62.0,61.0,-100.00,NNW,329,5.0,8.0,97,0.00,,,0.25,,2013-05-11 01:52:00,
2013-05-10 22:02:00,62.0,62.0,-100.00,NNW,329,5.0,9.0,97,0.35,,,0.29,,2013-05-11 02:02:00,
2013-05-10 22:11:00,62.0,62.0,-100.00,NNW,329,5.0,9.0,97,0.35,,,0.29,,2013-05-11 02:11:00,
2013-05-10 22:22:00,62.0,61.0,-100.00,NNW,344,3.0,5.0,98,0.07,,,0.33,,2013-05-11 02:22:00,
2013-05-10 22:32:00,62.0,62.0,-100.00,NNW,343,4.0,9.0,98,0.26,,,0.38,,2013-05-11 02:32:00,
2013-05-10 22:42:00,62.0,62.0,-100.00,NNW,343,4.0,9.0,98,0.26,,,0.38,,2013-05-11 02:42:00,
2013-05-10 22:52:00,62.0,61.0,-100.00,North,352,4.0,10.0,98,0.14,,,0.43,,2013-05-11 02:52:00,
2013-05-10 23:01:00,62.0,61.0,-100.00,NNW,340,3.0,8.0,98,0.17,,,0.48,,2013-05-11 03:01:00,
2013-05-10 23:11:00,62.0,61.0,-100.00,NNW,340,3.0,8.0,98,0.17,,,0.48,,2013-05-11 03:11:00,
2013-05-10 23:21:00,61.0,60.0,-100.00,North,6,3.0,5.0,98,0.13,,,0.52,,2013-05-11 03:21:00,
2013-05-10 23:33:00,61.0,60.0,-100.00,NE,55,3.0,9.0,97,0.00,,,0.54,,2013-05-11 03:33:00,
2013-05-10 23:42:00,61.0,60.0,-100.00,NE,55,3.0,9.0,97,0.00,,,0.54,,2013-05-11 03:42:00,
2013-05-10 23:53:00,61.0,60.0,-100.00,SE,145,6.0,11.0,97,0.00,,,0.54,,2013-05-11 03:53:00,